Year,Month,Day,Hour,Minute,Value (Times are PST for temperature in C)
2013,12,10,00,00,2.70
2013,12,10,00,01,2.70
2013,12,10,00,02,2.70
2013,12,10,00,03,2.70
2013,12,10,00,04,2.70
2013,12,10,00,05,2.70
2013,12,10,00,06,2.70
2013,12,10,00,07,2.70
2013,12,10,00,08,2.70
2013,12,10,00,09,2.70
2013,12,10,00,10,2.70
2013,12,10,00,11,2.70
2013,12,10,00,12,2.70
2013,12,10,00,13,2.60
2013,12,10,00,14,2.60
2013,12,10,00,15,2.60
2013,12,10,00,16,2.60
2013,12,10,00,17,2.60
2013,12,10,00,18,2.60
2013,12,10,00,19,2.60
2013,12,10,00,20,2.60
2013,12,10,00,21,2.60
2013,12,10,00,22,2.60
2013,12,10,00,23,2.60
2013,12,10,00,24,2.60
2013,12,10,00,25,2.60
2013,12,10,00,26,2.60
2013,12,10,00,27,2.60
2013,12,10,00,28,2.60
2013,12,10,00,29,2.60
2013,12,10,00,30,2.60
2013,12,10,00,31,2.60
2013,12,10,00,32,2.60
2013,12,10,00,33,2.70
2013,12,10,00,34,2.70
2013,12,10,00,35,2.70
2013,12,10,00,36,2.70
2013,12,10,00,37,2.70
2013,12,10,00,38,2.70
2013,12,10,00,39,2.70
2013,12,10,00,40,2.70
2013,12,10,00,41,2.70
2013,12,10,00,42,2.70
2013,12,10,00,43,2.70
2013,12,10,00,44,2.70
2013,12,10,00,45,2.70
2013,12,10,00,46,2.70
2013,12,10,00,47,2.70
2013,12,10,00,48,2.70
2013,12,10,00,49,2.70
2013,12,10,00,50,2.70
2013,12,10,00,51,2.70
2013,12,10,00,52,2.70
2013,12,10,00,53,2.70
2013,12,10,00,54,2.70
2013,12,10,00,55,2.70
2013,12,10,00,56,2.70
2013,12,10,00,57,2.70
2013,12,10,00,58,2.70
2013,12,10,00,59,2.70
2013,12,10,01,00,2.70
2013,12,10,01,01,2.70
2013,12,10,01,02,2.70
2013,12,10,01,03,2.70
2013,12,10,01,04,2.70
2013,12,10,01,05,2.70
2013,12,10,01,06,2.70
2013,12,10,01,07,2.70
2013,12,10,01,08,2.70
2013,12,10,01,09,2.70
2013,12,10,01,10,2.70
2013,12,10,01,11,2.70
2013,12,10,01,12,2.70
2013,12,10,01,13,2.70
2013,12,10,01,14,2.70
2013,12,10,01,15,2.70
2013,12,10,01,16,2.70
2013,12,10,01,17,2.70
2013,12,10,01,18,2.70
2013,12,10,01,19,2.70
2013,12,10,01,20,2.70
2013,12,10,01,21,2.70
2013,12,10,01,22,2.70
2013,12,10,01,23,2.70
2013,12,10,01,24,2.70
2013,12,10,01,25,2.70
2013,12,10,01,26,2.70
2013,12,10,01,27,2.70
2013,12,10,01,28,2.70
2013,12,10,01,29,2.70
2013,12,10,01,30,2.70
2013,12,10,01,31,2.70
2013,12,10,01,32,2.70
2013,12,10,01,33,2.70
2013,12,10,01,34,2.70
2013,12,10,01,35,2.70
2013,12,10,01,36,2.70
2013,12,10,01,37,2.70
2013,12,10,01,38,2.70
2013,12,10,01,39,2.70
2013,12,10,01,40,2.70
2013,12,10,01,41,2.70
2013,12,10,01,42,2.70
2013,12,10,01,43,2.70
2013,12,10,01,44,2.70
2013,12,10,01,45,2.70
2013,12,10,01,46,2.70
2013,12,10,01,47,2.70
2013,12,10,01,48,2.70
2013,12,10,01,49,2.70
2013,12,10,01,50,2.70
2013,12,10,01,51,2.70
2013,12,10,01,52,2.70
2013,12,10,01,53,2.70
2013,12,10,01,54,2.70
2013,12,10,01,55,2.70
2013,12,10,01,56,2.70
2013,12,10,01,57,2.70
2013,12,10,01,58,2.70
2013,12,10,01,59,2.70
2013,12,10,02,00,2.70
2013,12,10,02,01,2.70
2013,12,10,02,02,2.70
2013,12,10,02,03,2.70
2013,12,10,02,04,2.70
2013,12,10,02,05,2.70
2013,12,10,02,06,2.70
2013,12,10,02,07,2.70
2013,12,10,02,08,2.70
2013,12,10,02,09,2.70
2013,12,10,02,10,2.70
2013,12,10,02,11,2.70
2013,12,10,02,12,2.70
2013,12,10,02,13,2.70
2013,12,10,02,14,2.70
2013,12,10,02,15,2.70
2013,12,10,02,16,2.70
2013,12,10,02,17,2.70
2013,12,10,02,18,2.70
2013,12,10,02,19,2.70
2013,12,10,02,20,2.70
2013,12,10,02,21,2.70
2013,12,10,02,22,2.70
2013,12,10,02,23,2.70
2013,12,10,02,24,2.70
2013,12,10,02,25,2.70
2013,12,10,02,26,2.70
2013,12,10,02,27,2.70
2013,12,10,02,28,2.70
2013,12,10,02,29,2.70
2013,12,10,02,30,2.70
2013,12,10,02,31,2.70
2013,12,10,02,32,2.70
2013,12,10,02,33,2.70
2013,12,10,02,34,2.70
2013,12,10,02,35,2.70
2013,12,10,02,36,2.70
2013,12,10,02,37,2.70
2013,12,10,02,38,2.70
2013,12,10,02,39,2.70
2013,12,10,02,40,2.70
2013,12,10,02,41,2.70
2013,12,10,02,42,2.70
2013,12,10,02,43,2.70
2013,12,10,02,44,2.70
2013,12,10,02,45,2.70
2013,12,10,02,46,2.70
2013,12,10,02,47,2.70
2013,12,10,02,48,2.70
2013,12,10,02,49,2.70
2013,12,10,02,50,2.70
2013,12,10,02,51,2.70
2013,12,10,02,52,2.70
2013,12,10,02,53,2.70
2013,12,10,02,54,2.70
2013,12,10,02,55,2.70
2013,12,10,02,56,2.70
2013,12,10,02,57,2.70
2013,12,10,02,58,2.70
2013,12,10,02,59,2.80
2013,12,10,03,00,2.80
2013,12,10,03,01,2.80
2013,12,10,03,02,2.80
2013,12,10,03,03,2.80
2013,12,10,03,04,2.80
2013,12,10,03,05,2.80
2013,12,10,03,06,2.80
2013,12,10,03,07,2.80
2013,12,10,03,08,2.80
2013,12,10,03,09,2.80
2013,12,10,03,10,2.80
2013,12,10,03,11,2.80
2013,12,10,03,12,2.80
2013,12,10,03,13,2.80
2013,12,10,03,14,2.80
2013,12,10,03,15,2.80
2013,12,10,03,16,2.80
2013,12,10,03,17,2.80
2013,12,10,03,18,2.80
2013,12,10,03,19,2.80
2013,12,10,03,20,2.80
2013,12,10,03,21,2.80
2013,12,10,03,22,2.80
2013,12,10,03,23,2.80
2013,12,10,03,24,2.80
2013,12,10,03,25,2.80
2013,12,10,03,26,2.80
2013,12,10,03,27,2.80
2013,12,10,03,28,2.80
2013,12,10,03,29,2.80
2013,12,10,03,30,2.80
2013,12,10,03,31,2.80
2013,12,10,03,32,2.80
2013,12,10,03,33,2.80
2013,12,10,03,34,2.80
2013,12,10,03,35,2.80
2013,12,10,03,36,2.80
2013,12,10,03,37,2.80
2013,12,10,03,38,2.80
2013,12,10,03,39,2.70
2013,12,10,03,40,2.70
2013,12,10,03,41,2.70
2013,12,10,03,42,2.70
2013,12,10,03,43,2.70
2013,12,10,03,44,2.70
2013,12,10,03,45,2.70
2013,12,10,03,46,2.70
2013,12,10,03,47,2.70
2013,12,10,03,48,2.70
2013,12,10,03,49,2.70
2013,12,10,03,50,2.70
2013,12,10,03,51,2.70
2013,12,10,03,52,2.70
2013,12,10,03,53,2.70
2013,12,10,03,54,2.70
2013,12,10,03,55,2.70
2013,12,10,03,56,2.70
2013,12,10,03,57,2.70
2013,12,10,03,58,2.70
2013,12,10,03,59,2.70
2013,12,10,04,00,2.70
2013,12,10,04,01,2.70
2013,12,10,04,02,2.70
2013,12,10,04,03,2.70
2013,12,10,04,04,2.70
2013,12,10,04,05,2.70
2013,12,10,04,06,2.70
2013,12,10,04,07,2.70
2013,12,10,04,08,2.70
2013,12,10,04,09,2.70
2013,12,10,04,10,2.70
2013,12,10,04,11,2.70
2013,12,10,04,12,2.70
2013,12,10,04,13,2.70
2013,12,10,04,14,2.60
2013,12,10,04,15,2.60
2013,12,10,04,16,2.60
2013,12,10,04,17,2.60
2013,12,10,04,18,2.60
2013,12,10,04,19,2.60
2013,12,10,04,20,2.60
2013,12,10,04,21,2.60
2013,12,10,04,22,2.60
2013,12,10,04,23,2.60
2013,12,10,04,24,2.50
2013,12,10,04,25,2.50
2013,12,10,04,26,2.50
2013,12,10,04,27,2.50
2013,12,10,04,28,2.50
2013,12,10,04,29,2.50
2013,12,10,04,30,2.50
2013,12,10,04,31,2.40
2013,12,10,04,32,2.40
2013,12,10,04,33,2.40
2013,12,10,04,34,2.40
2013,12,10,04,35,2.40
2013,12,10,04,36,2.40
2013,12,10,04,37,2.40
2013,12,10,04,38,2.40
2013,12,10,04,39,2.40
2013,12,10,04,40,2.40
2013,12,10,04,41,2.40
2013,12,10,04,42,2.40
2013,12,10,04,43,2.40
2013,12,10,04,44,2.40
2013,12,10,04,45,2.40
2013,12,10,04,46,2.40
2013,12,10,04,47,2.40
2013,12,10,04,48,2.40
2013,12,10,04,49,2.40
2013,12,10,04,50,2.40
2013,12,10,04,51,2.40
2013,12,10,04,52,2.40
2013,12,10,04,53,2.40
2013,12,10,04,54,2.40
2013,12,10,04,55,2.40
2013,12,10,04,56,2.40
2013,12,10,04,57,2.40
2013,12,10,04,58,2.40
2013,12,10,04,59,2.40
2013,12,10,05,00,2.40
2013,12,10,05,01,2.40
2013,12,10,05,02,2.40
2013,12,10,05,03,2.40
2013,12,10,05,04,2.40
2013,12,10,05,05,2.40
2013,12,10,05,06,2.40
2013,12,10,05,07,2.40
2013,12,10,05,08,2.40
2013,12,10,05,09,2.40
2013,12,10,05,10,2.40
2013,12,10,05,11,2.40
2013,12,10,05,12,2.50
2013,12,10,05,13,2.50
2013,12,10,05,14,2.50
2013,12,10,05,15,2.50
2013,12,10,05,16,2.50
2013,12,10,05,17,2.50
2013,12,10,05,18,2.50
2013,12,10,05,19,2.50
2013,12,10,05,20,2.50
2013,12,10,05,21,2.50
2013,12,10,05,22,2.60
2013,12,10,05,23,2.60
2013,12,10,05,24,2.60
2013,12,10,05,25,2.60
2013,12,10,05,26,2.60
2013,12,10,05,27,2.60
2013,12,10,05,28,2.60
2013,12,10,05,29,2.60
2013,12,10,05,30,2.60
2013,12,10,05,31,2.60
2013,12,10,05,32,2.60
2013,12,10,05,33,2.60
2013,12,10,05,34,2.60
2013,12,10,05,35,2.60
2013,12,10,05,36,2.60
2013,12,10,05,37,2.60
2013,12,10,05,38,2.60
2013,12,10,05,39,2.60
2013,12,10,05,40,2.60
2013,12,10,05,41,2.60
2013,12,10,05,42,2.60
2013,12,10,05,43,2.60
2013,12,10,05,44,2.60
2013,12,10,05,45,2.60
2013,12,10,05,46,2.60
2013,12,10,05,47,2.60
2013,12,10,05,48,2.60
2013,12,10,05,49,2.60
2013,12,10,05,50,2.60
2013,12,10,05,51,2.60
2013,12,10,05,52,2.60
2013,12,10,05,53,2.60
2013,12,10,05,54,2.60
2013,12,10,05,55,2.60
2013,12,10,05,56,2.60
2013,12,10,05,57,2.60
2013,12,10,05,58,2.60
2013,12,10,05,59,2.60
2013,12,10,06,00,2.60
2013,12,10,06,01,2.60
2013,12,10,06,02,2.60
2013,12,10,06,03,2.60
2013,12,10,06,04,2.60
2013,12,10,06,05,2.60
2013,12,10,06,06,2.60
2013,12,10,06,07,2.60
2013,12,10,06,08,2.60
2013,12,10,06,09,2.60
2013,12,10,06,10,2.70
2013,12,10,06,11,2.70
2013,12,10,06,12,2.70
2013,12,10,06,13,2.70
2013,12,10,06,14,2.70
2013,12,10,06,15,2.70
2013,12,10,06,16,2.70
2013,12,10,06,17,2.70
2013,12,10,06,18,2.70
2013,12,10,06,19,2.70
2013,12,10,06,20,2.70
2013,12,10,06,21,2.70
2013,12,10,06,22,2.70
2013,12,10,06,23,2.70
2013,12,10,06,24,2.70
2013,12,10,06,25,2.70
2013,12,10,06,26,2.70
2013,12,10,06,27,2.80
2013,12,10,06,28,2.80
2013,12,10,06,29,2.80
2013,12,10,06,30,2.80
2013,12,10,06,31,2.80
2013,12,10,06,32,2.80
2013,12,10,06,33,2.80
2013,12,10,06,34,2.80
2013,12,10,06,35,2.80
2013,12,10,06,36,2.80
2013,12,10,06,37,2.80
2013,12,10,06,38,2.80
2013,12,10,06,39,2.80
2013,12,10,06,40,2.80
2013,12,10,06,41,2.80
2013,12,10,06,42,2.80
2013,12,10,06,43,2.80
2013,12,10,06,44,2.80
2013,12,10,06,45,2.80
2013,12,10,06,46,2.80
2013,12,10,06,47,2.70
2013,12,10,06,48,2.70
2013,12,10,06,49,2.70
2013,12,10,06,50,2.70
2013,12,10,06,51,2.70
2013,12,10,06,52,2.70
2013,12,10,06,53,2.70
2013,12,10,06,54,2.70
2013,12,10,06,55,2.70
2013,12,10,06,56,2.70
2013,12,10,06,57,2.70
2013,12,10,06,58,2.70
2013,12,10,06,59,2.70
2013,12,10,07,00,2.80
2013,12,10,07,01,2.80
2013,12,10,07,02,2.80
2013,12,10,07,03,2.80
2013,12,10,07,04,2.80
2013,12,10,07,05,2.80
2013,12,10,07,06,2.80
2013,12,10,07,07,2.80
2013,12,10,07,08,2.80
2013,12,10,07,09,2.80
2013,12,10,07,10,2.80
2013,12,10,07,11,2.80
2013,12,10,07,12,2.80
2013,12,10,07,13,2.80
2013,12,10,07,14,2.80
2013,12,10,07,15,2.80
2013,12,10,07,16,2.80
2013,12,10,07,17,2.80
2013,12,10,07,18,2.80
2013,12,10,07,19,2.80
2013,12,10,07,20,2.80
2013,12,10,07,21,2.80
2013,12,10,07,22,2.80
2013,12,10,07,23,2.80
2013,12,10,07,24,2.80
2013,12,10,07,25,2.80
2013,12,10,07,26,2.90
2013,12,10,07,27,2.90
2013,12,10,07,28,2.90
2013,12,10,07,29,2.90
2013,12,10,07,30,2.90
2013,12,10,07,31,2.90
2013,12,10,07,32,2.90
2013,12,10,07,33,2.90
2013,12,10,07,34,2.90
2013,12,10,07,35,2.90
2013,12,10,07,36,2.90
2013,12,10,07,37,2.90
2013,12,10,07,38,2.90
2013,12,10,07,39,2.90
2013,12,10,07,40,2.90
2013,12,10,07,41,2.90
2013,12,10,07,42,2.90
2013,12,10,07,43,2.90
2013,12,10,07,44,2.90
2013,12,10,07,45,2.90
2013,12,10,07,46,2.90
2013,12,10,07,47,2.90
2013,12,10,07,48,2.90
2013,12,10,07,49,2.90
2013,12,10,07,50,2.90
2013,12,10,07,51,2.90
2013,12,10,07,52,2.90
2013,12,10,07,53,2.90
2013,12,10,07,54,2.90
2013,12,10,07,55,2.90
2013,12,10,07,56,2.90
2013,12,10,07,57,2.90
2013,12,10,07,58,2.90
2013,12,10,07,59,2.90
2013,12,10,08,00,2.90
2013,12,10,08,01,2.90
2013,12,10,08,02,2.90
2013,12,10,08,03,2.90
2013,12,10,08,04,2.90
2013,12,10,08,05,2.90
2013,12,10,08,06,2.90
2013,12,10,08,07,2.90
2013,12,10,08,08,2.90
2013,12,10,08,09,2.90
2013,12,10,08,10,2.90
2013,12,10,08,11,2.90
2013,12,10,08,12,2.90
2013,12,10,08,13,2.90
2013,12,10,08,14,2.90
2013,12,10,08,15,2.90
2013,12,10,08,16,2.90
2013,12,10,08,17,2.90
2013,12,10,08,18,2.90
2013,12,10,08,19,2.90
2013,12,10,08,20,2.90
2013,12,10,08,21,2.90
2013,12,10,08,22,2.90
2013,12,10,08,23,2.90
2013,12,10,08,24,2.90
2013,12,10,08,25,2.90
2013,12,10,08,26,2.90
2013,12,10,08,27,2.90
2013,12,10,08,28,2.90
2013,12,10,08,29,2.90
2013,12,10,08,30,2.90
2013,12,10,08,31,2.90
2013,12,10,08,32,2.90
2013,12,10,08,33,2.90
2013,12,10,08,34,2.90
2013,12,10,08,35,2.90
2013,12,10,08,36,2.90
2013,12,10,08,37,2.90
2013,12,10,08,38,2.90
2013,12,10,08,39,2.90
2013,12,10,08,40,2.90
2013,12,10,08,41,2.90
2013,12,10,08,42,3.00
2013,12,10,08,43,3.00
2013,12,10,08,44,3.00
2013,12,10,08,45,3.00
2013,12,10,08,46,3.00
2013,12,10,08,47,3.10
2013,12,10,08,48,3.10
2013,12,10,08,49,3.10
2013,12,10,08,50,3.10
2013,12,10,08,51,3.10
2013,12,10,08,52,3.10
2013,12,10,08,53,3.10
2013,12,10,08,54,3.10
2013,12,10,08,55,3.10
2013,12,10,08,56,3.10
2013,12,10,08,57,3.10
2013,12,10,08,58,3.10
2013,12,10,08,59,3.10
2013,12,10,09,00,3.10
2013,12,10,09,01,3.10
2013,12,10,09,02,3.10
2013,12,10,09,03,3.10
2013,12,10,09,04,3.10
2013,12,10,09,05,3.10
2013,12,10,09,06,3.20
2013,12,10,09,07,3.20
2013,12,10,09,08,3.20
2013,12,10,09,09,3.20
2013,12,10,09,10,3.20
2013,12,10,09,11,3.20
2013,12,10,09,12,3.20
2013,12,10,09,13,3.20
2013,12,10,09,14,3.20
2013,12,10,09,15,3.20
2013,12,10,09,16,3.20
2013,12,10,09,17,3.20
2013,12,10,09,18,3.30
2013,12,10,09,19,3.30
2013,12,10,09,20,3.30
2013,12,10,09,21,3.30
2013,12,10,09,22,3.30
2013,12,10,09,23,3.30
2013,12,10,09,24,3.30
2013,12,10,09,25,3.30
2013,12,10,09,26,3.40
2013,12,10,09,27,3.40
2013,12,10,09,28,3.40
2013,12,10,09,29,3.40
2013,12,10,09,30,3.40
2013,12,10,09,31,3.40
2013,12,10,09,32,3.40
2013,12,10,09,33,3.50
2013,12,10,09,34,3.50
2013,12,10,09,35,3.50
2013,12,10,09,36,3.50
2013,12,10,09,37,3.50
2013,12,10,09,38,3.50
2013,12,10,09,39,3.50
2013,12,10,09,40,3.50
2013,12,10,09,41,3.50
2013,12,10,09,42,3.60
2013,12,10,09,43,3.60
2013,12,10,09,44,3.60
2013,12,10,09,45,3.60
2013,12,10,09,46,3.60
2013,12,10,09,47,3.60
2013,12,10,09,48,3.60
2013,12,10,09,49,3.60
2013,12,10,09,50,3.60
2013,12,10,09,51,3.60
2013,12,10,09,52,3.60
2013,12,10,09,53,3.60
2013,12,10,09,54,3.60
2013,12,10,09,55,3.60
2013,12,10,09,56,3.60
2013,12,10,09,57,3.60
2013,12,10,09,58,3.60
2013,12,10,09,59,3.60
2013,12,10,10,00,3.60
2013,12,10,10,01,3.60
2013,12,10,10,02,3.60
2013,12,10,10,03,3.60
2013,12,10,10,04,3.60
2013,12,10,10,05,3.60
2013,12,10,10,06,3.60
2013,12,10,10,07,3.60
2013,12,10,10,08,3.60
2013,12,10,10,09,3.60
2013,12,10,10,10,3.60
2013,12,10,10,11,3.60
2013,12,10,10,12,3.70
2013,12,10,10,13,3.70
2013,12,10,10,14,3.70
2013,12,10,10,15,3.70
2013,12,10,10,16,3.70
2013,12,10,10,17,3.70
2013,12,10,10,18,3.70
2013,12,10,10,19,3.70
2013,12,10,10,20,3.70
2013,12,10,10,21,3.70
2013,12,10,10,22,3.70
2013,12,10,10,23,3.70
2013,12,10,10,24,3.70
2013,12,10,10,25,3.80
2013,12,10,10,26,3.80
2013,12,10,10,27,3.80
2013,12,10,10,28,3.80
2013,12,10,10,29,3.80
2013,12,10,10,30,3.90
2013,12,10,10,31,3.90
2013,12,10,10,32,3.90
2013,12,10,10,33,3.90
2013,12,10,10,34,3.90
2013,12,10,10,35,3.90
2013,12,10,10,36,4.00
2013,12,10,10,37,4.00
2013,12,10,10,38,4.00
2013,12,10,10,39,4.00
2013,12,10,10,40,4.10
2013,12,10,10,41,4.10
2013,12,10,10,42,4.10
2013,12,10,10,43,4.10
2013,12,10,10,44,4.00
2013,12,10,10,45,4.00
2013,12,10,10,46,4.00
2013,12,10,10,47,4.00
2013,12,10,10,48,4.00
2013,12,10,10,49,4.00
2013,12,10,10,50,4.00
2013,12,10,10,51,4.00
2013,12,10,10,52,4.00
2013,12,10,10,53,4.00
2013,12,10,10,54,4.00
2013,12,10,10,55,4.00
2013,12,10,10,56,4.00
2013,12,10,10,57,4.00
2013,12,10,10,58,4.00
2013,12,10,10,59,4.00
2013,12,10,11,00,4.00
2013,12,10,11,01,4.00
2013,12,10,11,02,4.00
2013,12,10,11,03,4.00
2013,12,10,11,04,4.00
2013,12,10,11,05,4.00
2013,12,10,11,06,4.00
2013,12,10,11,07,4.00
2013,12,10,11,08,4.10
2013,12,10,11,09,4.00
2013,12,10,11,10,4.00
2013,12,10,11,11,4.00
2013,12,10,11,12,4.00
2013,12,10,11,13,4.00
2013,12,10,11,14,4.10
2013,12,10,11,15,4.10
2013,12,10,11,16,4.10
2013,12,10,11,17,4.10
2013,12,10,11,18,4.10
2013,12,10,11,19,4.10
2013,12,10,11,20,4.10
2013,12,10,11,21,4.10
2013,12,10,11,22,4.10
2013,12,10,11,23,4.10
2013,12,10,11,24,4.10
2013,12,10,11,25,4.10
2013,12,10,11,26,4.10
2013,12,10,11,27,4.10
2013,12,10,11,28,4.10
2013,12,10,11,29,4.20
2013,12,10,11,30,4.20
2013,12,10,11,31,4.20
2013,12,10,11,32,4.20
2013,12,10,11,33,4.20
2013,12,10,11,34,4.20
2013,12,10,11,35,4.20
2013,12,10,11,36,4.20
2013,12,10,11,37,4.20
2013,12,10,11,38,4.20
2013,12,10,11,39,4.20
2013,12,10,11,40,4.30
2013,12,10,11,41,4.30
2013,12,10,11,42,4.30
2013,12,10,11,43,4.30
2013,12,10,11,44,4.30
2013,12,10,11,45,4.30
2013,12,10,11,46,4.30
2013,12,10,11,47,4.30
2013,12,10,11,48,4.40
2013,12,10,11,49,4.40
2013,12,10,11,50,4.40
2013,12,10,11,51,4.40
2013,12,10,11,52,4.40
2013,12,10,11,53,4.40
2013,12,10,11,54,4.40
2013,12,10,11,55,4.40
2013,12,10,11,56,4.40
2013,12,10,11,57,4.40
2013,12,10,11,58,4.50
2013,12,10,11,59,4.50
2013,12,10,12,00,4.50
2013,12,10,12,01,4.60
2013,12,10,12,02,4.70
2013,12,10,12,03,4.70
2013,12,10,12,04,4.70
2013,12,10,12,05,4.70
2013,12,10,12,06,4.70
2013,12,10,12,07,4.70
2013,12,10,12,08,4.70
2013,12,10,12,09,4.70
2013,12,10,12,10,4.70
2013,12,10,12,11,4.70
2013,12,10,12,12,4.70
2013,12,10,12,13,4.70
2013,12,10,12,14,4.70
2013,12,10,12,15,4.70
2013,12,10,12,16,4.70
2013,12,10,12,17,4.70
2013,12,10,12,18,4.70
2013,12,10,12,19,4.70
2013,12,10,12,20,4.70
2013,12,10,12,21,4.70
2013,12,10,12,22,4.70
2013,12,10,12,23,4.70
2013,12,10,12,24,4.70
2013,12,10,12,25,4.70
2013,12,10,12,26,4.70
2013,12,10,12,27,4.70
2013,12,10,12,28,4.70
2013,12,10,12,29,4.70
2013,12,10,12,30,4.70
2013,12,10,12,31,4.70
2013,12,10,12,32,4.70
2013,12,10,12,33,4.70
2013,12,10,12,34,4.70
2013,12,10,12,35,4.70
2013,12,10,12,36,4.70
2013,12,10,12,37,4.70
2013,12,10,12,38,4.70
2013,12,10,12,39,4.70
2013,12,10,12,40,4.70
2013,12,10,12,41,4.70
2013,12,10,12,42,4.70
2013,12,10,12,43,4.70
2013,12,10,12,44,4.70
2013,12,10,12,45,4.70
2013,12,10,12,46,4.70
2013,12,10,12,47,4.80
2013,12,10,12,48,4.80
2013,12,10,12,49,4.80
2013,12,10,12,50,4.80
2013,12,10,12,51,4.90
2013,12,10,12,52,4.90
2013,12,10,12,53,4.90
2013,12,10,12,54,5.00
2013,12,10,12,55,5.00
2013,12,10,12,56,5.00
2013,12,10,12,57,5.00
2013,12,10,12,58,5.00
2013,12,10,12,59,5.00
2013,12,10,13,00,5.00
2013,12,10,13,01,5.00
2013,12,10,13,02,4.90
2013,12,10,13,03,4.90
2013,12,10,13,04,4.90
2013,12,10,13,05,4.90
2013,12,10,13,06,4.90
2013,12,10,13,07,4.90
2013,12,10,13,08,4.90
2013,12,10,13,09,4.80
2013,12,10,13,10,4.80
2013,12,10,13,11,4.80
2013,12,10,13,12,4.80
2013,12,10,13,13,4.80
2013,12,10,13,14,4.80
2013,12,10,13,15,4.80
2013,12,10,13,16,4.80
2013,12,10,13,17,4.80
2013,12,10,13,18,4.80
2013,12,10,13,19,4.80
2013,12,10,13,20,4.80
2013,12,10,13,21,4.80
2013,12,10,13,22,4.80
2013,12,10,13,23,4.80
2013,12,10,13,24,4.80
2013,12,10,13,25,4.80
2013,12,10,13,26,4.80
2013,12,10,13,27,4.80
2013,12,10,13,28,4.80
2013,12,10,13,29,4.80
2013,12,10,13,30,4.80
2013,12,10,13,31,4.80
2013,12,10,13,32,4.80
2013,12,10,13,33,4.80
2013,12,10,13,34,4.80
2013,12,10,13,35,4.80
2013,12,10,13,36,4.80
2013,12,10,13,37,4.80
2013,12,10,13,38,4.80
2013,12,10,13,39,4.80
2013,12,10,13,40,4.80
2013,12,10,13,41,4.80
2013,12,10,13,42,4.80
2013,12,10,13,43,4.80
2013,12,10,13,44,4.80
2013,12,10,13,45,4.80
2013,12,10,13,46,4.90
2013,12,10,13,47,4.90
2013,12,10,13,48,4.90
2013,12,10,13,49,4.90
2013,12,10,13,50,4.90
2013,12,10,13,51,4.90
2013,12,10,13,52,4.90
2013,12,10,13,53,4.90
2013,12,10,13,54,4.90
2013,12,10,13,55,4.90
2013,12,10,13,56,4.90
2013,12,10,13,57,4.90
2013,12,10,13,58,4.90
2013,12,10,13,59,4.90
2013,12,10,14,00,4.90
2013,12,10,14,01,4.90
2013,12,10,14,02,4.90
2013,12,10,14,03,4.90
2013,12,10,14,04,4.90
2013,12,10,14,05,4.90
2013,12,10,14,06,5.00
2013,12,10,14,07,5.00
2013,12,10,14,08,5.00
2013,12,10,14,09,5.00
2013,12,10,14,10,5.00
2013,12,10,14,11,5.00
2013,12,10,14,12,5.10
2013,12,10,14,13,5.10
2013,12,10,14,14,5.10
2013,12,10,14,15,5.10
2013,12,10,14,16,5.10
2013,12,10,14,17,5.10
2013,12,10,14,18,5.10
2013,12,10,14,19,5.10
2013,12,10,14,20,5.10
2013,12,10,14,21,5.10
2013,12,10,14,22,5.10
2013,12,10,14,23,5.10
2013,12,10,14,24,5.10
2013,12,10,14,25,5.20
2013,12,10,14,26,5.20
2013,12,10,14,27,5.10
2013,12,10,14,28,5.10
2013,12,10,14,29,5.10
2013,12,10,14,30,5.10
2013,12,10,14,31,5.10
2013,12,10,14,32,5.20
2013,12,10,14,33,5.10
2013,12,10,14,34,5.10
2013,12,10,14,35,5.10
2013,12,10,14,36,5.20
2013,12,10,14,37,5.20
2013,12,10,14,38,5.20
2013,12,10,14,39,5.20
2013,12,10,14,40,5.20
2013,12,10,14,41,5.20
2013,12,10,14,42,5.20
2013,12,10,14,43,5.20
2013,12,10,14,44,5.20
2013,12,10,14,45,5.20
2013,12,10,14,46,5.20
2013,12,10,14,47,5.20
2013,12,10,14,48,5.20
2013,12,10,14,49,5.20
2013,12,10,14,50,5.10
2013,12,10,14,51,5.10
2013,12,10,14,52,5.10
2013,12,10,14,53,5.10
2013,12,10,14,54,5.10
2013,12,10,14,55,5.10
2013,12,10,14,56,5.10
2013,12,10,14,57,5.10
2013,12,10,14,58,5.10
2013,12,10,14,59,5.10
2013,12,10,15,00,5.00
2013,12,10,15,01,5.00
2013,12,10,15,02,5.00
2013,12,10,15,03,5.00
2013,12,10,15,04,5.00
2013,12,10,15,05,5.00
2013,12,10,15,06,5.00
2013,12,10,15,07,5.00
2013,12,10,15,08,5.00
2013,12,10,15,09,5.00
2013,12,10,15,10,5.00
2013,12,10,15,11,5.00
2013,12,10,15,12,5.00
2013,12,10,15,13,5.00
2013,12,10,15,14,5.00
2013,12,10,15,15,5.00
2013,12,10,15,16,5.00
2013,12,10,15,17,4.90
2013,12,10,15,18,5.00
2013,12,10,15,19,4.90
2013,12,10,15,20,4.90
2013,12,10,15,21,5.00
2013,12,10,15,22,5.00
2013,12,10,15,23,5.00
2013,12,10,15,24,4.90
2013,12,10,15,25,4.90
2013,12,10,15,26,4.90
2013,12,10,15,27,4.90
2013,12,10,15,28,4.90
2013,12,10,15,29,4.90
2013,12,10,15,30,4.90
2013,12,10,15,31,4.90
2013,12,10,15,32,4.90
2013,12,10,15,33,4.90
2013,12,10,15,34,5.00
2013,12,10,15,35,5.00
2013,12,10,15,36,5.00
2013,12,10,15,37,5.00
2013,12,10,15,38,5.00
2013,12,10,15,39,5.00
2013,12,10,15,40,5.00
2013,12,10,15,41,5.00
2013,12,10,15,42,5.00
2013,12,10,15,43,5.00
2013,12,10,15,44,5.00
2013,12,10,15,45,5.00
2013,12,10,15,46,5.00
2013,12,10,15,47,5.00
2013,12,10,15,48,5.00
2013,12,10,15,49,5.00
2013,12,10,15,50,5.00
2013,12,10,15,51,5.00
2013,12,10,15,52,5.00
2013,12,10,15,53,5.00
2013,12,10,15,54,5.00
2013,12,10,15,55,5.00
2013,12,10,15,56,5.00
2013,12,10,15,57,5.00
2013,12,10,15,58,5.00
2013,12,10,15,59,5.00
2013,12,10,16,00,5.00
2013,12,10,16,01,5.00
2013,12,10,16,02,5.00
2013,12,10,16,03,5.00
2013,12,10,16,04,5.00
2013,12,10,16,05,5.00
2013,12,10,16,06,5.00
2013,12,10,16,07,5.00
2013,12,10,16,08,5.00
2013,12,10,16,09,5.00
2013,12,10,16,10,5.00
2013,12,10,16,11,5.00
2013,12,10,16,12,5.00
2013,12,10,16,13,5.00
2013,12,10,16,14,5.00
2013,12,10,16,15,5.00
2013,12,10,16,16,4.90
2013,12,10,16,17,4.90
2013,12,10,16,18,4.90
2013,12,10,16,19,4.90
2013,12,10,16,20,4.90
2013,12,10,16,21,4.90
2013,12,10,16,22,4.90
2013,12,10,16,23,4.90
2013,12,10,16,24,4.90
2013,12,10,16,25,4.90
2013,12,10,16,26,4.90
2013,12,10,16,27,4.90
2013,12,10,16,28,4.90
2013,12,10,16,29,4.80
2013,12,10,16,30,4.80
2013,12,10,16,31,4.80
2013,12,10,16,32,4.80
2013,12,10,16,33,4.80
2013,12,10,16,34,4.80
2013,12,10,16,35,4.80
2013,12,10,16,36,4.80
2013,12,10,16,37,4.80
2013,12,10,16,38,4.80
2013,12,10,16,39,4.80
2013,12,10,16,40,4.80
2013,12,10,16,41,4.80
2013,12,10,16,42,4.80
2013,12,10,16,43,4.80
2013,12,10,16,44,4.80
2013,12,10,16,45,4.80
2013,12,10,16,46,4.80
2013,12,10,16,47,4.80
2013,12,10,16,48,4.80
2013,12,10,16,49,4.80
2013,12,10,16,50,4.80
2013,12,10,16,51,4.70
2013,12,10,16,52,4.70
2013,12,10,16,53,4.70
2013,12,10,16,54,4.70
2013,12,10,16,55,4.70
2013,12,10,16,56,4.70
2013,12,10,16,57,4.70
2013,12,10,16,58,4.70
2013,12,10,16,59,4.70
2013,12,10,17,00,4.70
2013,12,10,17,01,4.70
2013,12,10,17,02,4.70
2013,12,10,17,03,4.70
2013,12,10,17,04,4.70
2013,12,10,17,05,4.70
2013,12,10,17,06,4.60
2013,12,10,17,07,4.60
2013,12,10,17,08,4.60
2013,12,10,17,09,4.60
2013,12,10,17,10,4.60
2013,12,10,17,11,4.60
2013,12,10,17,12,4.50
2013,12,10,17,13,4.50
2013,12,10,17,14,4.50
2013,12,10,17,15,4.50
2013,12,10,17,16,4.50
2013,12,10,17,17,4.50
2013,12,10,17,18,4.50
2013,12,10,17,19,4.50
2013,12,10,17,20,4.50
2013,12,10,17,21,4.50
2013,12,10,17,22,4.40
2013,12,10,17,23,4.40
2013,12,10,17,24,4.40
2013,12,10,17,25,4.40
2013,12,10,17,26,4.30
2013,12,10,17,27,4.30
2013,12,10,17,28,4.30
2013,12,10,17,29,4.30
2013,12,10,17,30,4.30
2013,12,10,17,31,4.30
2013,12,10,17,32,4.30
2013,12,10,17,33,4.30
2013,12,10,17,34,4.30
2013,12,10,17,35,4.30
2013,12,10,17,36,4.30
2013,12,10,17,37,4.30
2013,12,10,17,38,4.20
2013,12,10,17,39,4.20
2013,12,10,17,40,4.20
2013,12,10,17,41,4.20
2013,12,10,17,42,4.20
2013,12,10,17,43,4.20
2013,12,10,17,44,4.20
2013,12,10,17,45,4.20
2013,12,10,17,46,4.20
2013,12,10,17,47,4.20
2013,12,10,17,48,4.20
2013,12,10,17,49,4.20
2013,12,10,17,50,4.20
2013,12,10,17,51,4.30
2013,12,10,17,52,4.30
2013,12,10,17,53,4.30
2013,12,10,17,54,4.20
2013,12,10,17,55,4.20
2013,12,10,17,56,4.20
2013,12,10,17,57,4.20
2013,12,10,17,58,4.20
2013,12,10,17,59,4.20
2013,12,10,18,00,4.20
2013,12,10,18,01,4.20
2013,12,10,18,02,4.20
2013,12,10,18,03,4.20
2013,12,10,18,04,4.20
2013,12,10,18,05,4.20
2013,12,10,18,06,4.20